Location: Unspecified
(0.0000°N, 0.0000°E)
Time: 19:03:43
(UTC+00:00)

Explorer 7 - Pass Details

Date: 27 November 2019
Orbit: 485 x 680 km, 50.3° (Epoch: 08 December)

Event Time Altitude Azimuth Distance (km) Brightness Sun altitude
Rises 06:34:27 0° 302° (WNW) 2,585 9.6 10.9°
Reaches altitude 10° 06:36:57 10° 288° (WNW) 1,682 8.7 11.5°
Maximum altitude 06:40:01 23° 233° (SW) 1,062 8.1 12.2°
Drops below altitude 10° 06:43:04 10° 179° (S) 1,661 9.6 13.0°
Sets 06:45:32 0° 164° (SSE) 2,543 10.8 13.5°
